Temp
-5 -6 -6 -6 -6 -6 -6 -7 -7 -7 -7 -7 -7 -7 -7 -7 -7 -8 -8 -8 -8 -8 -8 -8 -7 -8 -8 -8 -7 -8 -8 -8 -8 -7 -7 -7 -7 -7 -7 -7 -6 -6 -7
-6 -6 -6 -5 -5 -6 -7 -7 -7 -7 -7 -7 -7 -7 -7 -8 -7 -7 -7 -8 -8 -8 -8 -7 -8 -8 -8 -8 -8 -7 -8 -8 -8 -7 -7 -7 -6 -6 -7 -6 -6 -6 -6
-6 -6 -6 -6 -7 -7 -7 -7 -7 -7 -7 -7 -7 -8 -8 -8 -8 -8 -8 -8 -8 -8 -8 -8 -8 -8 -8 -8 -8 -7 -8 -8 -8 -7 -7 -7 -7 -6 -7 -6 -6 -6 -6
-6 -6 -6 -7 -7 -7 -7 -7 -7 -7 -7 -7 -8 -8 -8 -8 -8 -8 -8 -8 -8 -8 -8 -8 -8 -8 -8 -8 -8 -8 -7 -7 -7 -7 -7 -7 -7 -7 -7 -7 -7 -6 -6
-7 -7 -7 -7 -7 -7 -7 -8 -8 -8 -8 -8 -8 -9 -9 -8 -8 -8 -8 -8 -8 -8 -8 -8 -8 -8 -8 -8 -8 -8 -8 -8 -8 -8 -7 -7 -7 -7 -7 -7 -7 -7 -7
-7 -7 -7 -7 -7 -8 -8 -8 -8 -8 -8 -8 -8 -9 -9 -9 -9 -9 -9 -9 -8 -8 -8 -8 -8 -8 -9 -8 -8 -8 -8 -8 -7 -7 -7 -7 -7 -7 -7 -7 -7 -7 -7
-7 -7 -7 -7 -7 -7 -8 -8 -8 -8 -9 -9 -9 -9 -9 -9 -9 -9 -9 -9 -9 -8 -9 -8 -8 -8 -9 -8 -8 -8 -8 -8 -8 -7 -7 -7 -7 -7 -7 -7 -7 -8 -8
-7 -8 -8 -8 -8 -8 -8 -8 -9 -9 -9 -9 -9 -9 -9 -9 -9 -9 -10 -10 -9 -9 -9 -9 -8 -8 -9 -9 -9 -9 -8 -8 -8 -8 -7 -7 -7 -8 -7 -7 -7 -7 -8
-7 -7 -7 -7 -8 -8 -8 -8 -8 -8 -9 -9 -9 -9 -9 -9 -9 -9 -10 -9 -10 -9 -9 -9 -9 -9 -9 -9 -8 -9 -8 -8 -8 -8 -7 -7 -8 -8 -8 -8 -7 -7 -7
-8 -8 -8 -9 -9 -8 -8 -8 -8 -8 -9 -9 -9 -9 -9 -9 -9 -10 -10 -10 -10 -9 -9 -9 -9 -9 -9 -9 -9 -9 -9 -9 -8 -8 -7 -7 -8 -8 -8 -8 -7 -7 -7
-8 -8 -8 -9 -9 -8 -8 -8 -8 -9 -9 -9 -8 -9 -9 -9 -9 -9 -9 -9 -10 -10 -10 -10 -9 -9 -9 -9 -9 -9 -9 -9 -8 -8 -8 -8 -8 -8 -8 -8 -8 -7 -7
-9 -9 -9 -9 -8 -8 -8 -8 -8 -8 -8 -8 -8 -8 -9 -8 -9 -9 -9 -9 -10 -10 -9 -10 -9 -9 -9 -9 -9 -9 -9 -9 -9 -9 -8 -8 -8 -8 -8 -8 -8 -8 -8
-9 -9 -9 -8 -8 -8 -8 -8 -8 -8 -8 -8 -8 -8 -8 -8 -9 -9 -9 -9 -9 -9 -9 -9 -9 -9 -9 -8 -9 -9 -9 -9 -9 -8 -8 -8 -8 -8 -8 -8 -8 -8 -8
-8 -8 -8 -8 -8 -7 -7 -7 -7 -7 -8 -8 -8 -8 -8 -9 -8 -8 -9 -9 -8 -8 -9 -8 -8 -8 -8 -8 -8 -8 -8 -9 -8 -8 -8 -8 -8 -8 -8 -8 -8 -8 -8
-8 -8 -7 -7 -7 -7 -7 -7 -7 -8 -8 -8 -8 -8 -8 -8 -8 -8 -8 -8 -7 -7 -8 -8 -8 -8 -8 -8 -8 -8 -8 -8 -8 -8 -8 -8 -8 -8 -8 -9 -9 -8 -8
-7 -7 -7 -7 -7 -7 -7 -7 -8 -7 -7 -7 -8 -8 -7 -8 -8 -8 -8 -8 -7 -7 -7 -7 -8 -8 -8 -8 -8 -8 -8 -8 -8 -8 -8 -8 -8 -8 -8 -9 -9 -9 -8
-7 -7 -7 -7 -7 -6 -7 -7 -7 -7 -7 -7 -7 -7 -7 -7 -7 -7 -8 -7 -7 -7 -7 -7 -7 -7 -7 -8 -8 -8 -8 -8 -8 -8 -8 -8 -9 -9 -9 -9 -9 -9 -9
-6 -6 -6 -6 -7 -6 -7 -7 -7 -7 -7 -7 -8 -7 -8 -8 -7 -7 -7 -7 -7 -7 -7 -7 -7 -7 -7 -7 -7 -7 -8 -8 -8 -8 -8 -8 -8 -9 -9 -9 -9 -9 -9
-7 -7 -7 -7 -7 -7 -7 -7 -7 -7 -7 -7 -7 -7 -7 -7 -7 -7 -7 -7 -7 -7 -7 -7 -7 -8 -8 -8 -7 -7 -8 -8 -8 -8 -8 -8 -9 -9 -9 -9 -9 -9 -9
-7 -7 -7 -7 -7 -7 -7 -7 -7 -7 -7 -7 -7 -7 -7 -7 -7 -7 -7 -7 -7 -7 -7 -7 -7 -8 -8 -8 -8 -7 -8 -8 -8 -8 -8 -8 -9 -9 -9 -9 -9 -9 -9
-7 -7 -7 -7 -7 -7 -7 -7 -7 -7 -7 -7 -7 -7 -7 -7 -7 -7 -7 -7 -8 -8 -7 -7 -7 -8 -8 -8 -8 -8 -8 -8 -8 -8 -8 -8 -8 -9 -9 -9 -9 -9 -9
-7 -7 -7 -7 -7 -7 -7 -7 -7 -7 -7 -7 -7 -7 -7 -7 -7 -7 -7 -8 -8 -7 -7 -7 -8 -8 -8 -8 -8 -8 -8 -8 -8 -8 -8 -8 -8 -9 -9 -9 -9 -10 -10
-7 -7 -7 -7 -7 -7 -7 -7 -7 -7 -7 -7 -7 -7 -7 -7 -7 -7 -7 -7 -7 -7 -8 -8 -8 -8 -8 -8 -8 -8 -9 -9 -8 -8 -9 -9 -9 -9 -9 -9 -9 -9 -10
-7 -7 -7 -7 -7 -7 -7 -7 -7 -7 -7 -7 -7 -7 -7 -7 -7 -7 -7 -7 -7 -7 -8 -8 -8 -8 -8 -8 -8 -8 -8 -9 -9 -9 -9 -9 -9 -9 -9 -9 -9 -10 -9
-7 -7 -7 -7 -7 -7 -7 -7 -7 -7 -7 -8 -7 -7 -7 -7 -7 -7 -7 -7 -7 -7 -8 -8 -8 -8 -8 -8 -8 -9 -8 -9 -9 -9 -9 -9 -9 -9 -9 -9 -9 -10 -10
-7 -7 -7 -7 -7 -7 -7 -7 -8 -7 -8 -8 -8 -7 -7 -8 -8 -8 -8 -8 -7 -8 -8 -8 -8 -8 -9 -9 -9 -9 -9 -9 -9 -9 -9 -10 -10 -10 -9 -9 -10 -10 -10
Height
5887 5888 5888 5888 5888 5889 5889 5889 5891 5893 5894 5894 5896 5897 5897 5898 5897 5898 5897 5897 5898 5897 5898 5897 5895 5895 5896 5895 5896 5896 5896 5896 5896 5895 5894 5894 5893 5893 5892 5891 5891 5891 5892
5889 5890 5890 5892 5893 5895 5895 5892 5895 5896 5898 5898 5899 5899 5900 5899 5899 5900 5899 5898 5899 5899 5899 5898 5897 5897 5897 5898 5898 5898 5898 5898 5898 5897 5897 5897 5896 5895 5895 5894 5893 5892 5893
5891 5891 5892 5894 5896 5897 5898 5898 5899 5899 5900 5901 5899 5901 5902 5901 5901 5901 5900 5901 5901 5899 5899 5899 5898 5898 5898 5899 5899 5900 5900 5900 5899 5898 5898 5898 5897 5897 5896 5896 5895 5894 5895
5892 5893 5896 5897 5899 5901 5901 5901 5900 5901 5901 5900 5902 5902 5903 5903 5902 5901 5901 5902 5901 5900 5900 5899 5898 5899 5899 5899 5899 5901 5901 5901 5900 5900 5900 5900 5899 5898 5898 5897 5897 5896 5895
5895 5896 5898 5899 5901 5902 5901 5901 5901 5901 5901 5903 5903 5902 5902 5903 5902 5901 5902 5902 5900 5900 5900 5899 5898 5899 5899 5900 5900 5900 5902 5902 5902 5903 5901 5901 5901 5900 5900 5899 5898 5898 5897
5897 5899 5899 5900 5901 5903 5903 5903 5902 5902 5903 5904 5903 5903 5903 5904 5902 5902 5903 5903 5902 5901 5900 5900 5899 5899 5900 5901 5900 5901 5902 5902 5902 5902 5903 5903 5903 5903 5901 5900 5899 5899 5899
5899 5900 5901 5902 5903 5904 5904 5904 5904 5904 5905 5905 5905 5904 5904 5903 5903 5904 5904 5902 5902 5901 5900 5900 5900 5900 5900 5900 5900 5901 5901 5901 5902 5902 5901 5902 5903 5903 5902 5901 5900 5899 5899
5901 5902 5902 5903 5904 5905 5906 5905 5905 5906 5906 5906 5906 5905 5905 5905 5905 5904 5903 5903 5903 5902 5902 5901 5900 5900 5899 5900 5900 5900 5900 5901 5902 5902 5901 5900 5902 5902 5902 5901 5900 5899 5899
5903 5903 5904 5906 5907 5908 5907 5907 5907 5907 5907 5907 5907 5906 5906 5905 5905 5904 5903 5902 5903 5903 5901 5900 5901 5900 5898 5898 5899 5900 5899 5899 5899 5900 5901 5900 5900 5900 5901 5901 5900 5900 5899
5904 5905 5906 5907 5908 5909 5909 5908 5909 5909 5908 5907 5907 5907 5906 5906 5904 5904 5902 5902 5902 5902 5901 5900 5900 5900 5898 5897 5898 5898 5898 5898 5898 5897 5898 5898 5899 5899 5900 5900 5900 5900 5900
5905 5906 5907 5908 5909 5909 5910 5910 5910 5910 5909 5908 5908 5907 5906 5905 5905 5904 5902 5902 5901 5900 5900 5899 5899 5898 5897 5896 5896 5895 5896 5894 5894 5895 5896 5896 5897 5897 5898 5899 5899 5899 5899
5906 5907 5909 5910 5910 5911 5912 5912 5911 5911 5911 5910 5909 5908 5907 5906 5905 5904 5903 5901 5901 5900 5899 5898 5898 5897 5895 5894 5893 5893 5892 5891 5892 5892 5893 5894 5894 5896 5896 5896 5897 5898 5897
5907 5908 5909 5911 5911 5912 5912 5913 5912 5912 5911 5910 5909 5908 5908 5907 5906 5904 5902 5900 5900 5900 5898 5897 5896 5895 5894 5893 5892 5891 5890 5888 5889 5890 5891 5892 5892 5892 5893 5894 5895 5896 5896
5909 5910 5910 5911 5912 5913 5914 5914 5913 5913 5912 5910 5908 5908 5907 5906 5905 5904 5903 5901 5900 5899 5898 5896 5894 5893 5893 5891 5890 5889 5888 5886 5886 5887 5888 5889 5889 5890 5891 5891 5892 5894 5894
5910 5911 5911 5912 5913 5914 5915 5914 5913 5912 5912 5911 5909 5908 5907 5907 5906 5904 5903 5901 5900 5898 5897 5895 5892 5892 5891 5890 5888 5886 5886 5885 5884 5883 5885 5886 5886 5887 5888 5889 5889 5891 5892
5911 5912 5913 5913 5913 5914 5915 5914 5914 5913 5912 5911 5910 5908 5907 5906 5906 5905 5904 5903 5901 5899 5897 5895 5893 5892 5890 5888 5887 5885 5883 5883 5882 5881 5880 5882 5883 5883 5884 5885 5886 5888 5889
5913 5913 5913 5914 5914 5915 5915 5915 5914 5913 5913 5912 5910 5908 5907 5906 5906 5906 5904 5903 5902 5900 5898 5896 5894 5891 5889 5888 5887 5885 5883 5881 5881 5880 5879 5878 5878 5879 5879 5881 5883 5883 5885
5913 5914 5914 5914 5915 5915 5915 5916 5914 5912 5912 5911 5910 5909 5908 5908 5907 5905 5904 5903 5902 5900 5898 5896 5893 5891 5889 5887 5886 5885 5883 5881 5878 5877 5877 5875 5874 5875 5876 5876 5877 5879 5880
5913 5914 5915 5916 5915 5915 5916 5915 5915 5915 5913 5912 5911 5910 5909 5907 5906 5904 5903 5901 5899 5898 5895 5894 5892 5890 5888 5886 5883 5882 5881 5879 5877 5874 5872 5872 5871 5870 5872 5872 5872 5873 5874
5912 5913 5914 5914 5915 5915 5915 5915 5915 5913 5913 5912 5911 5909 5908 5907 5905 5902 5901 5898 5897 5895 5894 5892 5890 5888 5886 5883 5881 5879 5877 5875 5873 5871 5869 5867 5867 5866 5866 5867 5869 5868 5870
5912 5912 5913 5913 5914 5915 5915 5914 5913 5911 5911 5911 5910 5909 5907 5905 5904 5902 5899 5897 5895 5893 5892 5889 5887 5886 5885 5882 5878 5876 5874 5872 5870 5868 5866 5865 5863 5862 5862 5861 5862 5864 5865
5911 5911 5912 5912 5913 5913 5913 5912 5911 5910 5909 5908 5907 5905 5904 5902 5900 5898 5897 5895 5893 5892 5889 5887 5884 5882 5880 5879 5877 5873 5870 5869 5867 5865 5863 5861 5859 5857 5857 5856 5856 5856 5857
5910 5910 5912 5912 5911 5910 5911 5910 5909 5908 5907 5905 5904 5902 5900 5899 5897 5895 5893 5891 5889 5886 5885 5883 5881 5878 5876 5874 5872 5871 5868 5864 5862 5861 5860 5858 5855 5853 5851 5849 5849 5849 5849
5908 5908 5909 5908 5908 5908 5908 5908 5907 5906 5904 5902 5901 5898 5897 5895 5894 5891 5888 5885 5883 5882 5880 5878 5877 5874 5871 5869 5867 5866 5864 5862 5857 5854 5853 5852 5850 5847 5846 5844 5842 5840 5840
5907 5907 5906 5905 5904 5905 5905 5904 5903 5901 5900 5898 5897 5895 5893 5891 5889 5887 5884 5881 5879 5877 5875 5872 5871 5868 5865 5862 5860 5859 5858 5857 5855 5852 5846 5844 5842 5842 5838 5836 5834 5833 5832
5904 5903 5902 5901 5901 5901 5902 5901 5899 5897 5896 5895 5893 5891 5889 5887 5884 5881 5879 5877 5873 5871 5869 5867 5865 5863 5860 5857 5855 5852 5850 5849 5847 5846 5844 5840 5834 5830 5828 5827 5826 5824 5823
Wind_Speed
16 22 18 21 19 16 12 13 14 13 13 13 11 10 11 10 11 12 11 11 10 9 9 10 10 11 11 8 6 8 10 11 13 13 13 13 15 14 13 13 14 13 11
19 17 18 19 18 13 11 13 13 13 11 11 11 11 11 13 14 14 15 14 13 9 9 9 10 10 10 7 7 7 9 9 12 13 13 13 14 15 14 12 13 14 14
19 19 19 19 17 14 12 12 13 13 12 12 13 13 14 14 13 14 16 16 14 12 9 8 9 9 7 5 7 7 7 8 10 13 14 13 12 13 16 15 11 10 9
20 20 19 18 16 14 14 15 16 16 16 16 15 15 14 13 13 14 14 14 16 16 13 10 8 7 6 5 8 6 6 7 7 9 10 10 11 12 12 11 12 9 8
20 19 17 17 15 15 16 17 17 17 18 16 16 15 14 14 15 15 14 14 15 14 13 12 10 7 5 4 6 6 5 7 6 5 9 8 9 10 9 8 9 9 10
16 15 16 14 14 15 17 17 17 16 15 13 13 11 11 11 12 11 10 10 11 10 9 9 10 8 5 1 2 4 3 4 8 8 5 5 6 7 8 7 8 7 7
16 14 15 14 13 12 12 13 13 12 11 9 8 8 10 10 10 8 7 7 8 8 9 9 8 7 5 1 1 2 2 3 3 9 11 3 7 7 6 6 7 6 5
15 15 15 15 14 12 12 14 14 13 13 12 12 11 12 11 10 7 7 8 8 8 7 8 7 6 5 4 1 3 3 1 2 4 10 6 7 7 6 5 6 6 4
9 8 7 8 9 10 12 11 10 10 10 9 9 9 8 9 8 6 5 7 4 3 4 5 6 5 5 3 2 3 5 3 3 6 7 7 6 3 5 5 5 6 4
8 7 8 9 8 7 8 7 6 5 5 6 9 8 7 8 10 6 5 5 6 4 3 4 6 5 6 6 5 5 6 6 5 7 11 12 13 8 5 3 3 3 5
6 5 9 11 11 10 9 9 8 7 6 6 7 7 7 7 6 6 7 7 7 6 4 4 7 7 5 7 8 9 9 9 11 10 12 13 12 10 8 5 4 4 3
8 11 12 12 11 11 8 7 7 8 6 6 7 7 6 5 7 8 8 10 8 7 6 6 8 8 7 9 9 9 13 12 10 8 11 12 14 13 13 10 7 6 3
12 13 13 10 10 10 9 8 8 7 6 6 7 7 6 6 7 8 9 10 10 9 10 10 11 9 9 9 10 11 9 12 11 7 9 13 16 14 15 16 13 11 7
9 11 11 11 10 9 9 11 10 9 7 6 6 7 7 6 5 6 7 10 11 10 9 10 9 9 9 9 10 10 10 11 12 10 9 11 16 17 15 16 15 15 11
14 13 12 10 9 10 11 11 9 7 8 8 7 7 7 7 7 8 8 9 10 11 11 10 11 11 11 10 10 10 10 10 14 14 12 12 13 16 17 15 15 15 13
11 13 12 11 10 9 9 8 9 9 9 10 9 9 9 9 8 9 9 10 12 14 15 13 12 11 9 9 9 10 12 11 10 17 17 14 14 14 17 18 17 17 14
10 8 9 9 6 7 6 6 8 9 10 11 11 8 7 10 9 8 8 10 11 13 14 13 13 14 14 12 11 11 12 13 11 11 14 20 18 17 16 21 20 20 18
9 7 6 6 5 5 3 4 5 8 10 10 10 8 7 7 8 8 8 9 12 13 14 14 15 16 16 17 17 15 14 15 17 15 13 19 20 21 20 20 24 24 22
7 6 6 6 5 4 1 3 4 4 5 6 7 6 7 8 8 9 11 11 12 13 14 15 16 17 17 18 19 19 19 17 15 17 18 16 21 20 24 23 23 26 28
7 8 8 7 5 4 3 3 1 1 2 4 6 6 7 7 9 10 12 13 14 15 16 16 17 17 17 20 20 19 20 21 19 17 16 17 18 20 22 29 28 26 27
6 5 6 6 5 3 2 1 2 3 4 4 4 4 5 5 7 9 11 12 14 16 17 18 19 19 18 19 22 22 22 22 22 20 19 18 17 20 22 26 27 30 31
8 6 5 4 3 2 2 4 5 5 6 7 8 9 10 10 11 12 13 13 14 15 17 18 20 22 23 21 21 24 24 23 23 22 20 20 19 19 21 25 28 30 31
9 8 7 6 4 4 7 9 10 9 9 10 11 12 14 15 15 16 16 17 17 18 19 20 21 22 23 22 22 22 24 26 26 25 22 21 21 21 22 24 27 31 33
11 11 10 8 8 8 11 13 13 13 13 15 16 16 18 19 21 21 21 21 20 20 21 22 22 23 24 25 23 23 24 26 27 28 27 24 23 25 25 25 27 29 35
16 14 14 13 13 14 15 17 18 19 19 19 21 21 22 22 23 24 23 22 21 21 22 22 23 25 27 26 26 25 26 27 27 25 27 28 28 27 29 30 29 31 33
21 19 16 16 18 19 21 21 24 28 24 24 25 24 22 22 23 23 22 23 23 24 25 25 26 28 30 30 29 30 31 32 30 29 25 25 30 33 34 33 31 32 35
Wind_Direction
99 100 96 93 101 99 86 82 82 80 87 91 81 69 68 62 54 44 43 40 39 41 30 26 23 20 19 43 57 67 82 79 79 84 80 85 90 91 88 91 93 96 104
112 115 116 112 106 103 94 92 88 84 75 76 71 65 68 68 60 52 44 44 37 31 27 24 19 13 21 44 62 86 96 76 78 80 75 71 81 80 80 86 95 100 100
111 107 103 103 101 101 96 88 75 73 68 64 67 64 57 57 60 54 46 43 40 37 28 12 7 11 18 67 72 93 91 69 74 64 55 63 69 72 70 68 82 97 105
103 97 93 92 95 91 88 78 69 61 62 62 60 60 59 55 55 53 47 41 40 38 31 20 0 355 29 85 88 81 76 67 88 99 42 53 71 71 67 62 63 82 98
100 103 100 95 92 84 77 69 65 64 63 61 66 62 55 56 54 50 43 40 41 38 31 18 12 359 26 72 93 86 72 78 97 193 28 44 66 69 58 67 64 59 93
103 102 96 87 82 79 76 73 69 66 67 67 63 58 51 46 48 44 41 42 42 39 33 18 11 8 5 44 93 95 82 101 119 175 242 39 30 34 38 56 66 72 83
105 103 96 89 81 79 80 76 77 81 78 72 65 54 50 43 36 30 31 45 55 46 29 19 2 2 3 325 219 232 179 93 103 161 195 293 326 5 15 40 52 69 87
112 101 90 83 77 74 77 76 72 67 62 55 49 41 39 29 17 13 23 31 49 43 21 14 13 2 348 358 264 264 261 226 164 171 216 269 249 336 349 40 40 51 86
120 112 109 102 91 83 73 63 51 39 34 26 23 25 25 14 5 355 358 12 15 42 19 5 0 9 340 329 299 271 258 244 220 217 223 241 233 288 328 349 42 28 48
130 127 128 108 99 89 68 47 36 38 30 16 22 29 45 41 29 19 358 0 348 1 21 336 325 321 319 312 295 269 263 269 262 255 227 248 251 245 264 316 354 14 25
133 125 106 96 92 92 82 77 69 66 57 38 34 40 41 31 31 28 11 359 5 352 355 318 301 291 289 291 288 283 277 283 275 268 244 236 248 246 227 245 286 305 357
121 120 123 116 105 104 102 94 84 70 62 40 35 37 43 22 20 14 5 9 4 344 335 325 303 286 277 276 282 290 292 283 275 278 246 240 238 242 235 234 240 262 276
122 122 131 129 100 98 104 96 90 76 59 42 35 26 30 30 20 17 351 350 339 327 319 321 322 316 301 281 274 269 278 288 283 275 256 247 239 242 244 245 238 237 242
122 125 121 118 120 114 100 84 74 60 45 33 19 9 21 29 30 19 352 340 337 343 340 328 336 332 324 328 309 296 283 275 289 287 273 264 248 240 240 240 236 231 227
114 118 125 122 118 105 83 66 48 42 37 31 21 356 20 27 34 41 30 8 10 22 15 3 355 353 348 340 331 314 306 294 281 283 278 266 253 241 242 238 232 229 232
105 108 107 106 107 96 77 62 50 47 47 49 41 22 27 40 43 52 38 29 22 16 11 6 357 355 357 345 343 326 319 306 290 275 276 266 255 246 239 242 237 233 232
120 108 99 104 105 100 80 46 35 37 51 55 54 45 33 36 44 37 32 22 20 15 12 13 7 7 6 356 349 336 325 315 307 273 278 275 264 251 242 238 241 235 235
135 135 128 117 125 118 80 42 37 37 36 38 45 47 44 39 30 13 11 11 5 7 7 2 359 359 359 353 357 356 336 319 310 303 282 267 268 255 245 242 238 241 237
153 150 142 131 132 122 87 20 60 60 39 28 22 32 31 17 8 359 353 348 347 346 347 348 348 346 342 338 340 343 344 345 330 314 299 281 267 263 251 245 242 241 240
151 138 138 132 123 105 117 107 105 72 49 14 25 19 11 2 350 342 338 337 334 334 333 329 329 331 332 327 329 332 334 334 335 337 324 304 281 270 259 250 248 245 245
155 142 134 134 118 121 94 57 339 317 306 314 332 333 335 330 326 326 325 330 328 327 326 322 322 321 320 318 320 322 326 329 330 330 332 326 301 280 265 259 256 255 252
165 165 169 150 165 229 307 335 333 322 313 311 309 312 318 319 318 317 317 314 308 311 313 318 320 321 321 316 315 317 321 325 324 323 323 324 323 304 283 265 258 255 252
188 188 204 209 227 282 300 310 310 311 311 309 310 310 314 316 317 315 309 306 310 312 315 317 320 320 317 314 309 311 317 318 317 318 319 319 312 309 301 284 269 259 255
214 217 225 235 251 268 278 288 294 301 305 306 302 304 310 315 316 314 314 314 313 315 313 312 316 319 318 315 309 304 309 312 313 313 315 315 311 307 301 291 276 268 260
238 229 238 246 256 263 268 280 291 297 300 299 298 299 303 309 311 312 311 311 309 308 308 312 316 319 315 313 310 309 307 308 309 308 308 311 309 305 296 290 281 270 263
246 243 240 252 262 268 273 284 292 288 293 291 289 290 297 306 310 310 309 310 310 309 311 313 315 317 317 314 313 312 312 311 311 313 308 299 296 300 298 289 278 270 267